NIMIQ 4

Last updated on Wed Sep 09 2026 00:02:58 GMT+0000 (Coordinated Universal Time)

1 33373U 08044A 26251.50012219 -.00000242 00000+0 00000+0 0 9998 2 33373 0.0110 143.1446 0002018 11.2512 291.2292 1.00272935 65815
UTC large
Height (km)
Speed (km/s)
/
Latitude / Longitude
Inclination (degrees)
Orbital Period (minutes)
Azimuth
Elevation
Range (km)
Doppler Factor

Next 0 passes for location: London (51.5072 / 0.1276)

No passes found over London.
NIMIQ 4